Wind_Speed
22 22 22 22 23 23 23 23 24 24 25 25 26 27 27 27 27 27 28 28 28 29 29 30 30 31 31 32 32 33 34 34 35 35 36 37 38 39 40 41 41 42 43 44 45 45 45 45 45 46 46 46 47 47 46 46 46 47 47 47 46 45 45 43 43 47 49 49 48 49 47 44 44 41 38 39 40 40 40 43 43 43 41 37 36 36 35 33
16 17 17 17 17 18 18 19 19 20 20 21 22 22 23 23 24 24 24 25 25 25 26 26 27 27 28 29 30 31 31 32 33 34 35 37 38 39 40 41 42 42 43 44 45 46 46 47 47 47 48 48 49 49 49 49 49 49 50 49 48 46 46 46 49 52 53 52 49 51 50 47 46 42 37 36 38 41 41 43 42 43 46 42 38 37 36 34
10 10 11 11 12 13 13 14 14 15 16 17 17 18 18 19 19 20 20 21 21 22 22 23 24 25 26 26 27 28 29 30 32 33 34 35 37 38 39 40 41 42 43 44 45 46 47 47 48 48 49 49 50 50 50 51 51 51 52 51 49 48 48 50 54 56 55 53 51 51 52 50 48 44 38 36 37 39 41 43 44 44 46 47 43 41 39 37
5 6 6 7 8 9 9 10 10 11 12 12 13 13 14 14 15 16 16 17 18 19 19 20 21 22 23 24 25 26 27 28 29 31 32 34 35 36 37 38 40 41 42 44 45 46 47 48 49 49 50 50 51 51 52 52 53 53 53 53 51 50 52 55 59 59 56 54 53 52 52 52 50 46 42 39 37 38 41 42 45 47 46 46 46 45 43 40
6 5 5 5 5 6 6 6 6 6 7 8 9 10 10 11 12 13 13 14 15 16 17 18 18 19 20 21 22 23 24 25 26 28 30 31 32 34 35 37 38 39 41 42 43 44 45 47 48 49 50 51 51 52 53 54 54 54 54 53 52 53 54 57 60 60 56 54 54 53 54 54 52 49 46 42 38 37 40 41 43 48 49 47 47 47 46 43
8 7 7 6 6 6 5 5 4 4 5 5 6 7 7 8 9 10 11 12 12 13 14 15 15 16 17 18 19 20 22 23 24 26 28 30 31 33 34 36 37 39 40 41 42 43 45 46 46 48 48 50 51 51 53 54 55 55 55 55 54 55 56 58 60 60 57 55 55 56 55 54 54 52 48 44 42 39 40 41 44 48 51 50 49 47 45 45
11 10 9 9 8 7 6 5 4 4 4 4 4 5 6 6 7 8 9 9 10 11 12 13 14 15 16 17 19 20 22 24 25 27 29 30 32 33 34 36 38 39 41 42 43 44 45 46 47 48 48 50 50 51 52 53 54 55 56 56 56 57 58 60 61 60 59 57 57 58 57 55 56 55 51 47 46 44 41 41 43 47 51 52 51 47 43 45
12 12 11 10 9 8 7 6 5 5 5 4 4 5 5 5 6 7 7 8 9 10 11 12 14 15 16 18 20 21 23 25 26 28 30 31 33 34 36 38 39 41 42 43 45 45 47 47 48 49 50 51 52 53 54 53 54 55 56 57 57 59 60 61 62 61 60 59 59 59 59 58 57 57 54 49 47 47 45 42 41 45 50 53 52 48 44 44
13 12 12 11 10 9 8 7 6 6 6 5 5 5 5 6 6 7 8 9 10 11 12 13 15 16 18 19 21 23 24 25 27 29 30 32 34 35 37 39 40 42 43 45 46 47 48 49 50 51 52 53 54 55 56 56 56 57 57 58 58 58 60 61 62 62 61 61 61 61 61 60 59 59 56 51 49 49 48 45 42 42 47 52 52 48 46 46
13 12 11 11 10 9 9 8 8 7 7 7 7 7 7 7 8 8 9 10 11 12 13 14 16 18 19 21 22 24 25 26 28 29 31 32 33 35 36 38 39 40 42 43 45 46 48 49 51 52 53 54 55 57 58 58 59 59 59 60 60 59 60 61 62 62 62 63 64 64 64 62 61 62 57 52 52 51 51 49 46 44 45 50 53 50 48 48
13 12 12 11 11 10 10 10 10 9 9 9 9 9 9 9 10 10 10 11 12 13 14 15 17 19 20 21 23 24 24 26 27 28 29 30 31 32 33 34 35 36 37 39 41 43 45 47 49 51 52 54 55 57 58 60 61 61 62 62 62 62 62 62 62 62 63 64 65 67 67 65 64 62 58 56 54 53 53 51 49 48 47 50 53 52 49 48
13 13 12 12 12 11 11 11 11 10 10 10 10 10 10 10 10 11 11 12 13 14 15 16 17 18 20 21 22 22 23 24 25 26 27 28 28 29 30 30 31 32 34 35 37 39 41 44 46 48 50 52 54 56 58 59 61 63 64 64 63 64 64 64 64 64 64 64 66 68 69 67 65 63 61 60 55 55 57 55 53 51 50 51 51 50 49 47
12 12 12 12 12 11 11 11 11 11 11 11 11 11 11 11 11 11 12 12 13 14 15 17 18 18 19 19 20 21 22 23 25 26 26 27 27 27 27 28 29 30 31 32 34 35 37 40 42 45 48 50 52 54 55 57 60 63 65 65 65 65 66 66 67 66 65 66 67 69 69 68 66 64 63 61 58 59 59 57 55 53 52 53 50 48 48 47
11 11 11 11 11 11 11 11 11 11 11 11 11 11 11 11 11 12 12 13 14 15 15 16 17 18 19 20 20 21 22 23 24 25 25 26 26 26 26 27 27 28 29 31 32 33 34 36 38 40 43 45 47 49 51 53 57 61 63 64 66 66 67 68 69 69 68 68 69 70 70 69 67 65 63 62 63 63 60 58 57 55 54 54 53 50 47 47
10 10 10 10 10 10 10 10 10 10 11 11 11 11 11 11 11 12 12 13 14 15 15 16 17 19 20 20 20 21 22 23 24 24 24 25 25 26 27 27 28 29 31 32 33 33 32 32 32 32 34 35 37 39 41 43 47 54 58 61 63 66 67 68 70 71 71 71 71 72 72 70 68 66 65 64 65 64 61 60 58 56 56 55 54 52 49 48
10 10 9 9 9 9 9 10 10 11 11 11 12 12 12 12 12 12 13 14 15 15 16 18 19 20 21 22 22 23 24 24 25 25 25 26 27 27 27 29 30 31 33 34 35 35 31 29 27 24 24 25 27 28 30 31 34 40 47 52 56 61 65 67 69 72 73 73 73 74 74 72 70 69 68 66 66 65 62 61 60 58 58 56 56 54 52 50
11 10 9 9 9 9 10 10 10 11 12 12 13 13 13 13 14 14 14 15 15 15 18 20 21 22 23 23 24 23 23 24 25 27 27 28 28 29 30 31 32 32 31 33 36 35 31 26 23 21 21 23 25 26 26 25 26 28 33 40 45 50 56 61 64 67 72 76 76 76 76 73 71 71 70 68 67 66 63 62 61 61 59 58 58 56 54 53
14 13 12 11 11 11 11 12 12 12 13 13 14 14 14 15 16 15 16 16 16 18 21 22 22 22 22 22 22 22 23 24 26 28 29 29 29 29 30 31 32 32 32 35 38 37 31 26 24 25 25 25 26 28 28 27 26 25 26 29 33 37 42 49 54 58 66 73 76 77 76 74 73 73 72 70 68 67 65 63 62 61 60 60 59 57 56 55
16 16 15 15 14 14 14 14 14 14 14 15 15 15 16 17 17 17 17 19 19 20 20 20 21 22 23 23 23 24 24 26 28 28 29 29 30 30 30 30 31 33 34 37 40 38 29 23 24 25 24 25 27 28 27 25 24 23 22 22 24 28 30 36 43 49 57 65 71 75 75 74 73 74 74 72 70 69 67 66 64 63 62 61 61 60 58 57
18 17 17 17 16 16 16 16 15 15 15 15 15 15 17 17 18 18 19 20 20 19 19 20 21 22 23 25 26 27 29 29 29 29 29 29 29 30 30 31 32 33 35 37 40 37 27 22 24 26 27 28 26 24 21 19 17 16 15 15 17 18 20 26 32 38 45 55 62 67 71 72 73 74 75 73 72 70 69 68 67 66 65 63 63 63 61 60
17 17 17 17 17 16 16 15 15 15 15 15 15 16 17 18 18 19 19 20 19 19 20 20 21 21 23 24 26 28 29 29 29 29 29 29 29 30 30 31 32 32 34 36 40 37 27 22 24 28 30 28 25 20 18 17 15 12 11 10 10 9 9 13 18 22 30 39 47 55 62 67 69 72 73 72 71 70 70 71 71 69 69 69 68 67 64 63
17 17 16 16 16 16 15 15 15 15 15 16 16 17 18 18 19 19 19 20 20 20 20 20 20 22 23 24 25 26 27 28 28 28 28 28 28 29 30 30 30 32 33 35 38 36 26 21 22 26 27 28 28 26 23 21 19 15 13 12 11 11 9 4 3 6 13 21 29 38 48 56 61 65 66 67 67 65 63 67 72 71 71 71 69 68 65 63
16 16 15 15 15 15 15 15 15 15 16 16 17 17 18 18 18 18 19 20 20 20 19 20 22 22 22 24 26 27 28 28 28 28 28 28 28 29 30 30 30 31 32 34 37 36 28 20 20 23 26 28 27 27 26 24 21 18 16 14 14 13 12 7 2 3 7 10 14 20 29 36 43 48 50 50 54 56 53 56 65 69 70 71 70 68 65 63
15 15 14 14 14 14 15 14 15 15 16 16 16 17 18 17 17 17 18 20 20 19 19 21 22 22 23 25 26 28 28 29 30 30 30 29 29 29 30 30 30 31 32 34 37 38 31 23 20 23 26 28 27 28 29 26 23 20 19 17 14 12 11 8 4 2 2 3 5 7 13 17 22 32 37 38 47 57 55 54 60 65 68 70 70 69 67 65
14 14 14 14 14 14 14 14 15 15 16 16 16 17 17 17 16 17 18 19 18 18 19 21 22 24 25 26 27 29 30 31 32 32 31 31 31 31 30 31 32 31 32 34 35 36 33 26 20 21 25 27 26 28 31 29 25 22 22 20 17 14 12 7 5 4 7 6 7 12 11 15 18 25 33 34 43 55 56 53 52 55 62 68 70 70 68 66
13 13 13 13 13 13 14 14 15 15 15 16 17 17 16 16 15 16 17 17 17 18 18 20 22 24 25 27 29 31 31 32 34 35 34 34 34 33 32 33 33 33 33 33 34 35 35 30 22 19 21 24 25 26 29 31 27 23 23 23 21 19 16 11 6 7 10 10 17 21 13 17 23 22 27 26 29 41 48 49 46 45 49 55 61 68 69 67
12 12 12 12 13 13 13 14 14 14 14 16 16 16 16 16 15 16 17 17 19 20 20 20 22 24 25 28 30 30 32 34 35 36 36 36 36 36 35 35 35 35 34 33 33 34 35 33 27 21 19 20 21 22 25 29 30 27 25 25 26 24 20 14 12 12 10 11 19 20 9 16 27 23 21 20 18 27 36 41 44 47 46 40 42 53 60 64
12 12 11 12 12 12 12 13 13 14 15 15 16 16 16 16 16 17 18 18 21 22 21 22 23 24 26 27 28 30 32 33 34 36 37 37 37 38 39 38 38 36 34 33 34 34 34 34 32 27 22 18 17 19 22 24 27 29 27 26 26 25 23 18 17 15 11 14 22 19 7 11 22 22 19 16 10 13 19 22 28 37 44 43 41 44 46 51
12 11 11 11 11 12 12 12 13 14 14 15 15 16 16 16 17 18 18 19 21 21 21 22 23 24 26 27 28 29 31 32 34 35 37 37 38 40 40 40 39 36 35 34 35 35 34 34 34 33 29 23 18 17 19 20 23 26 26 26 24 23 23 20 16 15 13 16 20 16 6 6 14 16 16 16 13 12 14 15 18 22 30 36 41 45 47 47
12 12 11 11 11 11 12 12 13 14 14 15 15 16 16 16 17 17 18 20 20 20 21 22 23 24 25 27 27 28 30 31 33 34 36 37 38 39 39 38 38 38 37 37 36 35 34 34 34 34 34 32 27 20 17 17 18 20 22 24 24 23 25 22 18 15 12 12 13 12 7 5 7 8 8 9 11 13 12 14 16 18 24 29 33 40 47 50
12 12 12 12 12 12 12 12 13 13 14 15 15 15 15 16 16 17 18 19 18 19 21 21 23 24 25 26 27 27 29 30 32 33 34 35 36 36 36 36 37 37 37 36 35 35 35 35 34 33 33 33 33 29 23 17 15 15 18 20 20 22 24 23 21 18 15 10 8 8 6 6 8 9 10 10 9 10 10 12 12 10 14 21 27 34 39 46
12 12 12 12 12 12 12 13 13 13 14 14 14 14 15 15 16 16 18 18 18 19 20 20 22 23 24 26 26 27 28 29 30 32 33 34 36 37 37 38 39 38 38 37 36 36 35 35 35 34 33 31 31 31 29 24 18 13 13 13 15 19 20 20 21 21 19 16 10 4 1 3 6 10 12 13 12 13 15 17 16 14 14 18 25 29 33 38
12 12 12 12 12 12 12 12 13 13 14 14 14 14 14 14 16 16 17 17 18 18 18 19 20 21 22 24 25 26 27 28 29 31 32 33 35 37 38 40 40 41 41 41 40 39 37 37 37 36 35 33 32 31 30 29 26 18 10 8 11 15 17 18 19 19 19 18 14 10 6 3 4 6 7 9 10 11 13 14 17 20 22 25 25 26 28 32
12 12 12 12 12 12 12 12 12 12 13 13 13 13 14 14 15 15 16 16 16 17 17 18 19 20 21 22 23 25 26 27 28 29 30 31 33 35 37 38 39 40 40 41 41 42 42 42 41 41 39 37 36 35 33 33 32 29 22 16 14 14 15 15 16 15 16 15 13 12 10 7 6 7 6 5 7 7 7 8 10 14 18 22 23 24 26 27
12 12 12 12 12 12 12 12 12 12 12 13 13 13 13 13 13 14 15 15 15 15 16 17 18 18 19 20 22 23 24 25 26 27 28 30 31 33 35 37 37 37 38 38 39 41 42 44 44 43 42 41 39 37 36 33 31 31 29 26 22 21 19 17 14 13 11 10 11 11 10 8 8 9 7 5 6 6 7 8 8 8 10 14 19 22 24 25
12 12 12 12 11 12 12 11 11 11 12 12 12 13 12 12 12 12 13 14 14 15 15 16 17 18 19 20 21 22 23 24 24 25 27 28 29 31 33 35 36 36 36 37 38 39 40 41 42 42 41 42 41 39 37 34 32 31 29 27 26 25 24 21 17 14 11 10 12 11 10 8 8 8 6 5 5 6 7 8 9 8 8 9 12 16 20 23
12 12 12 12 12 12 12 12 11 11 11 11 12 12 11 11 11 11 12 13 14 14 15 16 17 17 18 20 21 22 22 23 24 25 26 27 28 29 30 32 34 36 36 36 37 37 38 38 39 40 40 41 41 40 38 37 36 33 31 29 27 26 24 22 20 19 17 16 16 14 11 10 9 9 8 7 7 7 8 9 9 9 9 9 10 12 15 18
11 12 11 11 12 12 12 12 12 11 11 11 11 11 11 10 10 10 11 12 13 13 14 15 16 17 18 19 20 22 23 23 24 24 25 26 28 29 29 30 31 33 35 36 36 36 36 36 37 38 39 40 40 39 39 39 38 36 35 32 30 27 25 23 22 21 20 21 21 19 16 13 12 12 11 12 13 13 13 13 12 12 12 12 13 13 14 16
10 10 11 11 11 12 12 12 12 12 11 12 12 12 11 10 10 10 10 10 12 13 14 15 17 18 19 19 20 21 23 24 25 25 26 26 27 28 28 29 29 31 32 34 35 35 35 35 35 37 37 37 37 37 37 37 37 36 36 35 33 30 27 26 25 23 22 21 21 20 19 17 16 16 15 16 17 17 18 18 18 17 17 17 18 18 18 18
10 10 10 11 11 11 12 12 12 12 12 12 13 12 12 11 10 10 9 10 11 12 13 15 17 18 20 21 21 22 23 24 25 26 27 27 27 28 28 28 29 29 29 31 33 34 34 34 34 34 35 35 35 34 34 34 34 33 33 32 32 30 29 27 26 25 23 22 20 19 18 17 17 19 18 17 18 19 20 20 20 21 21 22 23 23 23 24
10 10 10 11 11 11 11 11 12 12 12 12 13 13 13 13 12 11 10 10 10 11 12 14 16 18 19 21 22 22 23 24 25 26 27 28 28 28 29 28 28 28 28 29 30 31 33 33 33 32 32 33 35 34 33 33 32 31 30 30 29 29 28 27 26 26 25 23 22 20 18 17 17 18 18 18 18 19 20 20 21 21 21 23 25 26 27 28
12 11 11 11 11 11 11 11 12 12 12 12 13 13 14 14 13 13 12 12 11 12 12 13 15 16 18 20 22 23 24 25 26 26 27 28 29 29 29 28 29 29 29 28 29 29 30 31 32 32 31 30 32 33 33 32 30 29 29 28 29 28 28 27 25 25 25 25 25 23 20 18 16 16 17 17 17 17 18 20 21 21 21 21 22 24 26 28
14 13 13 13 12 12 12 12 12 13 13 13 13 13 13 14 14 14 14 14 14 14 13 14 15 16 17 19 21 23 24 26 27 27 28 28 29 30 29 29 28 29 29 29 29 29 29 30 31 31 31 30 30 31 31 31 30 29 29 28 28 28 28 27 26 24 23 25 26 25 24 23 19 18 20 20 19 16 16 18 20 21 21 22 22 23 24 26
14 15 15 15 14 14 14 14 14 14 14 14 14 14 13 14 15 15 16 16 16 16 16 16 17 17 18 19 20 22 24 26 27 28 29 29 30 30 31 30 29 29 29 29 30 30 30 29 29 29 30 31 30 30 30 30 29 29 29 29 28 28 28 27 27 25 23 24 25 24 24 26 26 24 24 24 23 20 18 18 20 21 21 23 24 25 25 26
14 15 16 17 17 17 16 16 16 16 16 16 16 15 15 14 15 16 16 17 17 17 18 18 19 19 20 20 21 23 24 26 27 28 30 31 32 32 33 33 31 30 29 28 29 30 30 30 30 29 30 30 31 31 31 30 29 28 29 29 29 29 29 29 28 28 26 26 27 25 23 25 28 28 26 26 26 25 23 23 23 23 23 24 25 26 27 28
15 15 16 17 18 19 19 18 17 17 18 18 18 18 17 16 15 16 17 18 18 18 18 18 19 19 20 21 22 23 25 26 27 28 29 31 32 34 35 35 35 33 31 29 29 29 29 30 31 31 31 30 30 30 30 30 30 29 28 28 29 29 29 29 30 30 29 28 28 27 25 25 27 28 28 27 27 27 26 25 25 25 25 26 26 27 28 28
16 16 16 17 18 19 20 20 19 19 19 19 20 20 19 18 17 16 16 18 19 19 19 19 18 18 19 21 21 22 24 25 27 29 30 30 31 33 34 36 37 37 35 32 31 29 29 29 30 32 33 32 31 30 29 29 30 30 28 27 28 29 29 29 30 31 31 30 30 30 29 29 29 28 28 28 28 28 27 26 26 25 25 26 26 27 28 29
18 17 16 17 18 18 20 21 22 21 20 20 21 22 21 21 20 19 18 18 19 20 20 20 20 19 19 20 21 21 22 24 27 28 30 31 32 32 33 34 36 38 38 37 34 32 31 30 29 30 33 35 34 33 31 29 30 31 30 27 26 27 29 29 30 31 32 32 33 32 31 32 33 32 31 31 31 30 30 29 28 27 27 27 27 28 29 29
21 19 18 18 18 18 19 21 22 23 23 22 22 23 23 23 23 22 22 20 20 20 21 22 22 21 21 21 21 21 22 23 26 27 29 31 33 33 34 34 34 36 39 40 39 36 34 33 31 29 30 34 37 36 35 33 31 32 33 31 28 27 28 30 31 32 33 34 35 34 32 33 35 36 35 34 33 33 33 33 32 31 31 31 31 31 31 31
25 23 22 21 20 19 20 21 22 23 24 24 24 24 25 25 25 25 24 23 23 22 22 22 23 23 23 23 23 23 23 24 26 28 29 31 33 34 35 35 35 35 37 39 40 39 37 36 34 31 29 31 35 37 37 36 35 35 35 35 33 30 28 29 31 33 34 35 36 37 36 36 37 38 38 38 37 36 36 37 36 36 35 35 35 34 34 34
28 27 27 25 23 22 22 22 23 24 25 26 26 26 27 27 27 27 26 26 25 24 24 24 24 24 25 25 26 26 26 26 28 29 30 31 33 34 35 36 36 36 36 37 39 41 40 38 37 35 32 31 34 36 37 37 37 37 38 38 38 35 31 30 32 33 34 35 37 37 38 39 41 41 41 41 41 40 40 41 41 41 41 41 41 41 40 39
30 31 31 30 28 26 26 25 24 25 26 27 27 28 28 29 29 29 28 28 27 26 26 25 25 26 27 27 28 29 29 28 29 30 31 32 33 34 35 36 37 37 37 37 37 39 41 41 39 38 36 34 34 36 37 37 37 38 39 41 41 40 37 33 33 34 35 36 37 37 38 41 43 44 45 45 45 44 43 44 45 46 46 47 47 47 46 46
Wind_Direction
272 271 272 272 273 273 273 273 272 271 269 268 267 267 267 267 267 267 267 267 267 267 268 268 268 269 268 268 268 269 269 269 269 269 268 268 268 268 267 267 266 265 265 264 263 262 262 261 260 260 260 259 258 257 256 255 254 254 254 255 259 261 262 262 259 256 254 251 249 249 246 245 247 246 242 236 235 239 241 241 238 238 237 234 232 229 232 233
274 274 276 277 278 278 277 276 275 273 272 270 269 268 268 267 267 267 267 267 267 267 268 268 268 269 269 269 269 269 269 269 269 268 268 268 268 267 267 267 266 266 265 265 264 264 263 262 261 260 259 259 259 258 257 256 255 255 255 255 257 257 258 258 255 253 252 250 249 250 248 246 247 248 247 243 237 238 242 244 240 240 239 235 234 233 231 231
278 278 280 281 280 279 277 276 275 273 272 271 270 269 268 267 267 266 267 266 267 267 267 268 268 268 269 269 269 269 270 270 270 269 269 268 268 267 267 267 266 265 265 264 264 263 263 262 262 261 260 259 258 258 257 256 255 255 255 255 255 254 253 253 251 251 251 250 249 250 250 248 248 247 247 247 240 236 239 245 244 241 240 237 234 235 233 229
298 291 288 285 281 278 275 272 272 271 271 271 270 269 268 267 266 266 266 266 266 266 266 267 268 268 269 270 270 270 270 271 272 272 271 271 270 270 269 269 268 267 265 264 263 263 262 262 261 261 260 259 258 257 257 256 256 255 255 255 253 251 251 250 250 251 251 250 250 249 250 250 248 246 245 245 243 239 236 241 247 244 241 241 237 235 234 230
345 334 325 317 311 305 299 294 290 286 281 277 274 272 270 269 269 269 269 269 269 270 271 271 272 272 273 274 274 274 272 274 276 275 275 275 274 274 273 272 271 270 269 267 266 264 263 262 261 260 259 259 258 257 256 256 255 255 254 254 252 251 250 250 251 253 252 252 251 250 250 250 248 246 245 245 244 243 239 237 244 247 244 243 240 236 234 232
18 17 15 14 11 2 355 347 334 319 305 294 286 281 277 274 273 273 274 275 276 277 278 279 279 280 280 280 281 281 279 280 282 281 281 281 280 279 278 278 276 275 274 272 270 268 266 265 263 262 261 260 258 257 256 255 254 253 253 252 251 250 249 250 251 252 252 251 250 250 249 249 250 248 245 244 244 242 242 239 240 247 246 242 241 239 235 235
41 42 40 38 34 28 22 14 1 349 332 314 304 296 289 285 283 282 283 284 286 287 288 289 290 290 291 290 290 290 289 289 290 290 289 289 288 286 285 284 283 281 279 277 275 273 271 269 267 265 263 262 260 259 257 256 255 253 252 251 249 249 248 248 249 250 251 249 249 248 248 247 248 249 245 243 243 241 242 242 242 245 248 245 243 242 238 236
46 47 45 42 39 34 29 23 16 6 353 342 332 323 314 308 303 301 302 303 304 304 303 302 301 301 301 299 299 298 297 297 296 296 295 294 293 292 290 289 287 286 284 282 280 277 275 272 270 268 266 264 262 261 259 257 256 255 252 251 249 249 248 248 249 250 250 249 248 247 247 246 246 247 246 243 243 243 241 241 244 246 248 247 246 245 241 238
43 43 42 41 39 35 31 27 24 17 8 0 353 348 342 336 331 329 327 325 322 319 316 314 311 309 306 304 303 302 302 301 300 299 298 297 296 295 294 292 291 289 288 286 283 281 278 275 273 270 268 266 264 262 260 258 257 256 254 252 250 249 248 248 249 249 249 249 248 247 246 246 245 246 245 243 243 244 242 239 241 245 248 248 247 246 242 240
40 41 41 42 41 40 37 34 33 29 22 16 12 8 2 357 351 345 340 336 331 327 323 319 316 313 311 310 308 306 306 305 303 302 301 301 300 298 297 296 294 292 291 289 286 284 281 278 275 272 270 268 265 263 262 259 257 256 255 253 251 249 248 248 247 247 247 247 247 247 246 245 245 245 243 242 242 243 243 241 238 241 246 248 247 245 242 240
40 42 44 46 46 45 42 38 35 31 27 22 18 13 8 3 356 351 346 340 335 330 326 322 319 317 315 313 311 310 311 309 306 305 304 303 301 301 299 298 296 294 292 289 287 285 282 280 278 275 272 269 266 264 262 260 258 256 254 252 251 250 248 247 247 246 246 246 246 246 245 244 244 244 243 241 241 242 243 241 238 237 241 247 248 246 243 240
42 44 45 46 46 43 40 36 33 29 25 21 17 13 8 3 358 354 349 342 337 332 327 323 321 319 317 316 314 314 313 311 309 307 305 304 303 302 302 301 300 297 295 292 289 287 284 280 278 275 272 270 267 264 262 260 257 255 253 251 250 249 248 247 246 245 245 245 245 245 245 244 243 242 242 242 239 239 240 239 238 236 238 243 248 249 246 243
42 43 42 41 39 36 34 32 28 25 21 17 14 11 7 4 1 357 351 345 339 333 330 327 325 322 320 320 319 318 317 314 312 311 309 309 308 307 308 308 308 307 305 303 299 295 290 285 280 276 273 271 268 265 262 260 257 254 253 251 249 247 247 246 245 243 243 243 244 244 244 244 243 241 241 242 240 238 237 237 237 236 236 239 244 248 247 244
38 37 35 33 33 32 30 28 24 21 17 15 14 12 11 8 4 359 354 348 342 339 336 333 330 328 327 327 326 324 320 318 319 319 318 317 316 317 318 319 320 321 320 317 315 309 302 293 285 278 274 269 267 265 263 260 258 255 253 251 248 245 244 244 243 242 240 240 241 243 243 243 243 242 241 241 240 239 236 236 237 235 234 236 239 243 246 244
33 31 30 29 30 30 28 25 22 19 18 19 19 19 17 12 9 5 360 354 350 346 340 338 338 336 334 332 329 326 326 328 327 325 324 325 327 327 327 328 330 332 331 329 328 323 316 307 297 289 282 275 271 268 265 264 261 257 254 251 248 245 242 241 241 241 239 238 238 240 241 241 241 241 240 239 240 239 237 236 236 235 234 234 236 239 242 244
35 33 30 28 29 29 27 24 23 23 25 26 27 26 22 20 17 11 5 1 356 348 344 346 344 339 337 334 332 333 334 333 330 330 332 334 334 333 333 336 338 340 339 337 337 334 328 322 313 305 299 293 290 285 278 276 271 266 260 254 250 247 243 240 239 239 238 236 236 236 238 238 239 240 240 239 239 239 237 236 236 235 233 233 234 236 239 242
37 35 33 33 33 33 33 32 34 35 36 36 35 32 29 26 20 12 8 2 354 349 350 350 346 342 340 338 338 338 336 334 335 338 340 340 340 340 342 344 343 342 340 341 343 341 336 333 329 326 321 317 316 309 302 296 288 280 271 262 256 251 246 242 240 239 238 236 235 234 235 235 236 239 239 238 239 239 238 237 236 236 234 232 232 233 236 239
42 42 43 45 46 48 49 49 50 48 46 44 40 35 31 26 19 13 7 360 354 355 355 351 346 343 341 339 340 338 338 341 345 346 345 345 345 346 347 346 345 343 343 346 348 346 341 341 343 342 334 326 323 320 317 311 301 292 282 272 264 258 252 246 242 240 238 237 235 234 233 233 233 236 238 238 238 238 238 237 236 236 235 234 232 231 234 237
49 51 53 56 58 59 59 58 56 52 48 45 39 33 27 22 16 11 5 2 2 360 355 350 347 345 344 345 346 347 350 353 353 351 350 350 349 349 348 347 347 347 349 350 351 349 346 346 348 345 338 330 327 325 323 317 308 299 291 283 275 267 259 252 247 242 240 238 236 235 233 232 232 234 236 237 237 238 238 238 237 237 236 235 234 231 231 235
52 54 56 58 60 61 60 58 55 51 47 42 35 28 23 18 12 9 6 5 4 0 357 356 354 352 352 352 353 357 360 359 358 356 355 353 351 351 350 350 351 351 352 353 354 354 350 350 353 352 349 346 341 337 335 331 327 320 311 306 297 282 266 256 251 247 244 240 238 237 235 232 231 233 235 236 237 238 238 238 236 236 235 234 234 232 230 232
51 53 55 57 59 60 59 57 53 48 43 36 30 24 18 14 10 10 9 7 6 5 5 4 1 0 360 358 359 1 1 1 1 1 360 357 355 353 353 354 354 354 356 357 359 359 357 360 4 4 7 12 15 14 10 4 4 4 354 345 338 323 293 266 257 256 251 245 241 239 237 233 231 232 234 235 236 238 239 239 237 235 235 234 233 232 230 230
48 50 52 54 55 56 55 52 47 42 36 29 24 19 15 14 13 14 13 10 10 11 10 10 9 9 7 6 7 7 6 5 5 6 6 3 359 358 358 358 357 358 360 1 3 4 4 10 14 14 20 27 29 30 31 26 26 27 26 25 25 21 9 342 283 274 261 249 244 241 239 235 233 233 236 237 238 239 240 239 237 235 235 235 234 234 232 231
43 45 47 47 48 47 45 42 37 33 29 23 18 16 15 16 17 17 16 14 13 13 14 17 18 15 12 13 13 13 13 14 13 14 14 11 7 6 4 3 2 3 4 4 7 10 11 18 19 16 18 19 20 24 26 25 27 27 28 28 24 21 17 19 22 304 276 257 250 241 237 235 233 234 237 239 239 239 240 238 237 237 236 236 236 236 234 232
37 39 40 40 38 37 35 32 29 26 23 18 15 16 18 19 20 20 19 18 17 17 19 22 21 19 19 18 19 19 19 21 23 24 22 18 16 13 9 9 8 7 7 8 12 13 13 19 18 13 16 19 22 26 26 27 31 31 30 28 22 18 13 18 27 335 277 253 250 220 212 212 218 227 229 232 236 237 238 238 238 239 237 236 236 237 236 234
30 32 33 32 30 28 26 24 22 20 17 15 17 19 19 22 24 24 23 21 21 23 25 24 23 24 24 23 25 26 24 25 28 29 29 26 23 19 15 14 14 12 11 12 15 16 16 18 16 13 17 21 26 29 28 30 35 38 38 36 35 32 20 25 53 69 90 106 131 131 152 178 192 220 227 229 237 239 239 237 238 239 238 237 236 237 237 236
22 24 25 25 24 22 20 18 18 16 13 16 20 21 22 26 27 28 27 25 28 32 31 29 28 28 27 27 29 29 28 29 30 30 30 29 27 24 21 18 17 17 16 15 17 20 22 20 16 15 19 22 24 27 28 30 35 41 45 43 42 39 27 27 63 99 103 114 131 127 140 177 178 203 221 222 232 238 241 239 235 237 239 239 238 238 238 238
18 19 19 19 18 17 15 15 15 14 14 19 23 24 27 30 30 32 31 28 33 36 34 33 32 31 30 30 31 30 30 31 30 30 30 30 30 28 27 24 21 20 18 17 17 21 26 26 23 20 21 23 22 24 27 29 33 40 47 48 48 48 42 47 73 91 101 120 136 136 143 175 171 175 191 201 223 241 247 246 243 240 238 237 237 239 239 240
18 17 17 15 14 14 14 13 14 15 18 23 25 29 33 35 36 36 32 31 35 36 34 34 33 34 34 33 32 31 32 32 31 31 32 32 32 31 30 28 25 22 19 18 20 22 24 27 30 28 26 23 17 20 25 26 29 34 39 42 45 50 53 64 76 74 89 123 140 152 160 174 178 180 185 191 206 231 241 248 252 249 244 240 238 238 238 239
19 17 17 16 15 16 15 15 18 21 24 26 29 35 38 40 41 39 36 35 36 36 35 35 34 35 37 36 34 33 33 33 32 32 32 32 34 33 32 29 28 25 23 22 22 23 24 25 29 32 33 31 25 21 21 21 24 27 30 33 38 44 49 60 68 68 93 123 139 161 181 174 181 188 198 201 196 206 223 238 252 254 249 244 239 238 238 238
22 20 20 20 19 21 19 19 24 27 30 31 34 38 41 43 43 42 40 38 36 36 36 36 35 35 37 38 36 33 32 32 31 30 28 28 30 32 31 30 29 28 28 27 24 24 26 26 27 30 32 33 33 30 19 13 15 21 29 32 35 42 48 55 58 59 83 116 137 163 193 213 201 191 203 219 214 214 223 232 243 254 257 254 244 240 240 240
25 22 22 21 22 25 24 24 27 29 33 36 38 39 40 42 44 45 44 40 38 39 37 36 35 34 35 37 36 35 33 32 30 29 28 27 27 29 31 32 32 31 30 29 27 26 26 28 29 29 30 31 32 33 28 17 5 11 24 25 29 38 45 57 62 58 64 86 125 161 191 223 247 251 254 266 252 232 234 234 234 241 255 260 254 247 244 243
25 23 22 21 22 24 25 27 28 30 34 38 39 40 39 40 42 44 45 43 41 41 38 36 36 35 35 35 35 35 35 33 32 32 32 31 30 31 32 34 34 34 34 33 31 30 28 29 31 31 31 31 31 32 32 30 19 4 1 5 22 34 39 51 59 56 54 57 72 99 184 236 259 262 258 265 265 265 269 262 252 241 244 263 267 260 252 247
20 20 19 19 19 20 23 26 28 30 35 37 39 41 40 41 41 41 41 42 41 41 39 37 36 35 34 34 34 34 34 33 32 32 32 31 29 28 29 31 32 33 33 34 33 34 33 33 34 34 34 33 34 34 35 37 36 31 13 0 19 27 31 40 44 46 47 48 59 66 50 21 312 300 284 281 287 289 285 274 263 256 256 264 270 269 263 254
13 14 14 14 15 16 19 23 26 30 34 36 38 40 40 40 39 38 38 38 37 37 38 36 34 33 33 32 33 33 32 31 31 31 31 30 28 27 27 29 30 31 31 32 33 34 35 36 36 36 35 35 35 34 33 33 35 37 38 34 25 16 19 26 28 32 38 39 46 50 43 36 20 20 18 348 342 344 334 311 284 269 263 262 263 266 267 263
9 9 8 9 10 12 15 19 22 27 31 33 37 40 39 38 36 35 34 32 31 32 32 32 31 29 28 28 29 30 30 30 29 29 30 31 31 30 29 29 30 31 31 31 32 32 33 34 34 33 32 33 35 34 33 31 31 32 35 36 34 28 23 20 18 21 28 23 18 20 25 25 19 24 30 17 4 2 360 352 333 307 285 271 265 264 264 264
8 6 5 5 6 8 11 15 18 22 26 29 33 37 37 35 33 31 28 24 23 23 23 25 25 23 22 22 22 24 26 27 26 25 27 29 30 31 31 31 31 31 31 32 32 32 31 32 32 31 32 33 34 34 34 34 34 33 31 32 34 33 29 25 21 20 16 358 349 349 353 355 353 353 353 352 347 344 346 343 335 329 317 300 283 273 269 266
8 7 4 2 5 6 7 11 13 15 18 21 27 31 31 32 30 27 23 19 16 13 12 15 16 15 14 14 14 15 17 20 21 21 21 22 25 28 28 30 29 29 30 30 30 31 31 31 31 32 34 35 35 34 35 35 35 35 33 32 31 30 27 26 24 22 17 9 3 358 349 335 323 317 315 317 318 319 327 331 329 324 318 315 310 299 288 279
6 6 3 1 3 3 3 5 7 7 9 10 16 22 23 25 26 22 18 14 10 6 3 5 5 5 7 7 7 7 8 11 13 14 16 16 18 21 23 25 26 25 26 26 27 29 29 30 31 33 34 34 33 33 35 35 34 34 34 33 32 29 25 24 24 21 17 13 11 9 5 355 337 324 315 311 308 305 305 308 312 313 311 310 312 310 305 299
3 2 2 1 0 359 359 360 0 1 1 1 4 8 12 16 17 15 13 10 6 1 358 358 357 357 359 0 1 1 1 3 4 6 8 10 12 14 15 18 20 22 22 22 23 24 25 26 28 30 32 33 33 33 34 34 33 32 32 30 30 29 27 24 22 20 17 13 10 5 2 359 351 345 337 324 316 313 312 310 306 304 302 301 301 301 300 299
353 356 358 357 355 355 354 352 352 354 355 354 353 355 358 2 4 4 4 4 3 359 355 354 353 352 353 353 354 355 355 356 357 358 360 2 5 7 8 10 12 15 17 18 19 19 20 21 23 25 26 29 33 36 37 36 34 32 31 30 30 30 29 26 22 19 17 14 12 6 357 353 350 348 344 334 327 325 323 320 313 306 301 298 296 294 292 291
341 347 349 348 348 348 345 343 344 346 348 347 347 347 348 350 351 351 353 354 356 356 352 351 351 351 350 350 349 349 349 350 352 352 353 354 356 359 1 3 5 7 10 13 16 16 16 17 19 22 23 23 26 31 35 36 35 33 31 31 31 31 31 29 25 20 17 13 12 9 2 356 352 348 341 332 330 328 324 319 314 309 304 298 293 290 288 286
334 336 337 338 339 337 335 335 336 337 339 340 341 342 340 339 340 341 342 342 344 348 347 346 348 349 350 349 347 346 346 347 349 350 350 350 351 352 355 357 359 1 2 5 8 11 14 14 13 15 17 19 21 22 27 31 32 32 30 28 28 29 28 29 27 22 16 13 12 10 8 6 357 345 337 332 329 324 318 314 310 308 306 301 296 292 289 286
329 326 326 328 328 327 327 327 327 328 329 331 334 335 334 332 332 333 333 333 334 336 339 340 343 345 347 346 345 345 344 345 347 348 348 349 349 349 350 352 353 355 356 358 359 2 7 10 11 10 10 14 18 19 19 22 25 27 27 26 25 24 24 25 26 24 17 12 10 8 6 7 3 351 345 344 343 335 320 309 305 302 299 296 292 290 288 287
322 320 320 320 320 321 320 320 321 321 321 323 324 326 329 328 327 326 326 327 328 329 331 333 335 337 341 342 342 343 343 342 344 345 346 347 347 346 346 347 349 350 351 352 353 354 356 0 5 7 6 7 13 16 16 16 18 19 20 21 20 19 19 19 20 21 17 12 11 10 4 2 4 3 356 353 353 352 342 327 318 311 302 295 291 286 282 280
318 317 316 315 315 315 315 315 315 315 315 317 317 318 321 323 324 323 322 322 322 324 326 328 330 331 334 337 339 341 341 341 342 344 344 345 345 344 343 343 343 345 347 348 349 349 350 351 353 356 359 360 3 8 12 13 13 13 13 13 14 14 13 11 11 13 13 10 10 11 5 358 359 3 2 358 357 357 355 346 338 332 323 315 307 298 291 284
316 315 313 313 313 312 311 310 309 309 311 311 312 312 314 316 319 319 319 319 319 320 321 324 326 328 330 332 335 338 340 340 341 342 344 344 344 343 342 340 339 340 343 344 345 345 345 346 346 346 349 352 353 357 3 6 7 8 8 6 6 8 7 6 4 4 5 4 4 6 5 359 357 359 359 358 356 354 353 350 345 340 334 328 322 315 310 303
311 311 310 309 309 309 308 307 306 306 306 306 307 308 308 310 312 314 315 316 317 317 318 320 323 325 327 329 331 334 336 337 338 340 341 342 343 342 341 340 338 337 338 339 341 340 340 341 341 340 340 342 344 347 352 356 357 359 2 3 0 0 2 1 359 357 357 357 357 358 358 355 355 356 356 356 355 352 350 347 345 341 336 331 326 322 319 316
306 306 305 304 304 305 304 304 303 303 302 302 302 303 304 306 307 309 310 311 313 314 315 317 319 321 324 326 327 329 331 333 336 338 339 340 341 340 340 340 338 336 335 336 337 337 336 335 337 337 334 333 335 338 340 344 346 346 350 354 356 355 355 355 354 353 352 351 351 354 353 350 350 352 352 352 353 351 349 346 344 341 337 333 331 328 325 321
302 302 301 300 299 299 299 299 299 300 300 299 299 299 300 301 303 304 305 306 307 309 311 313 316 318 321 323 325 326 328 330 332 334 336 337 338 338 338 338 337 336 334 333 333 334 334 332 332 333 330 327 328 330 332 334 336 336 337 341 345 348 348 348 348 348 347 346 347 349 349 345 344 345 346 347 348 348 347 344 342 339 335 333 332 331 329 325
300 300 299 298 297 297 295 295 295 296 297 296 296 297 296 297 298 300 301 302 303 304 306 308 311 314 317 319 322 324 325 327 329 331 332 333 335 335 335 335 335 335 334 332 331 331 332 331 330 331 330 324 323 325 326 327 329 328 328 329 333 337 339 341 341 341 342 342 343 345 345 342 341 341 342 342 343 344 344 342 340 337 334 332 332 331 330 327
298 297 297 297 297 296 295 293 293 292 293 293 294 294 294 294 295 295 297 298 299 300 301 303 306 309 311 314 317 320 321 323 325 326 327 330 331 332 333 334 333 333 333 332 330 329 329 329 329 329 330 325 321 320 321 322 323 323 322 322 324 326 329 333 334 334 335 336 337 340 340 338 337 338 338 339 341 341 341 340 338 335 333 332 332 331 330 328
295 295 295 295 295 295 295 294 292 291 291 291 291 292 292 292 292 293 294 295 295 296 297 298 301 303 306 309 312 314 316 318 320 322 323 325 327 329 331 332 332 333 332 331 330 328 327 327 327 327 328 327 322 319 319 320 321 320 319 319 319 320 322 326 328 328 329 329 331 335 336 333 333 334 334 335 337 339 340 338 335 333 333 332 331 330 329 329
Height
5736 5736 5737 5737 5738 5738 5738 5739 5740 5740 5741 5742 5743 5744 5745 5746 5746 5746 5747 5747 5748 5749 5749 5749 5749 5749 5750 5750 5750 5750 5750 5750 5750 5749 5749 5749 5749 5750 5750 5750 5750 5751 5751 5751 5752 5752 5753 5754 5755 5756 5756 5758 5758 5759 5762 5762 5762 5763 5764 5766 5769 5772 5773 5775 5774 5770 5769 5772 5776 5775 5778 5781 5781 5785 5789 5792 5794 5795 5795 5795 5798 5799 5800 5803 5805 5807 5809 5811
5733 5734 5735 5735 5736 5736 5736 5736 5737 5738 5738 5739 5740 5741 5742 5743 5743 5743 5744 5745 5745 5746 5746 5746 5746 5747 5747 5747 5747 5747 5747 5746 5746 5746 5745 5746 5746 5746 5746 5746 5746 5746 5746 5747 5747 5748 5748 5749 5750 5750 5751 5752 5752 5754 5756 5756 5757 5757 5758 5761 5766 5768 5769 5769 5765 5762 5763 5768 5772 5771 5773 5777 5779 5782 5786 5789 5791 5792 5793 5793 5795 5795 5795 5799 5803 5804 5806 5808
5732 5733 5733 5734 5734 5734 5734 5735 5735 5736 5736 5737 5738 5739 5740 5741 5741 5741 5742 5742 5743 5743 5743 5744 5744 5744 5744 5744 5744 5744 5744 5743 5743 5742 5742 5743 5743 5743 5742 5742 5742 5742 5742 5742 5742 5743 5743 5743 5744 5744 5745 5746 5747 5748 5749 5749 5751 5751 5752 5756 5760 5762 5763 5761 5755 5754 5758 5763 5767 5768 5769 5772 5775 5779 5783 5785 5787 5789 5791 5790 5790 5790 5791 5794 5799 5800 5802 5804
5731 5732 5732 5733 5733 5733 5733 5733 5734 5734 5735 5736 5737 5738 5738 5739 5739 5739 5740 5740 5741 5741 5741 5741 5741 5742 5741 5742 5741 5741 5741 5741 5739 5739 5739 5739 5739 5739 5739 5738 5738 5737 5737 5737 5737 5737 5738 5738 5738 5739 5739 5740 5741 5742 5742 5743 5744 5745 5747 5750 5753 5755 5755 5752 5747 5748 5754 5759 5762 5764 5765 5766 5770 5775 5778 5780 5783 5786 5787 5786 5785 5787 5788 5789 5794 5797 5797 5800
5731 5731 5732 5732 5732 5732 5732 5733 5733 5734 5734 5735 5736 5737 5737 5738 5738 5738 5739 5739 5739 5739 5739 5739 5740 5740 5739 5739 5739 5739 5739 5738 5737 5736 5736 5736 5735 5735 5734 5734 5733 5732 5732 5732 5732 5732 5732 5732 5733 5733 5733 5733 5735 5735 5735 5737 5738 5739 5742 5743 5746 5748 5747 5745 5743 5745 5752 5756 5757 5760 5761 5761 5765 5769 5773 5776 5780 5781 5782 5783 5783 5783 5784 5786 5789 5793 5794 5797
5732 5732 5732 5732 5732 5732 5733 5733 5734 5734 5734 5735 5736 5736 5737 5737 5737 5737 5738 5738 5738 5738 5738 5738 5738 5738 5738 5737 5737 5736 5736 5736 5734 5734 5733 5732 5732 5731 5731 5729 5728 5728 5727 5727 5727 5727 5726 5727 5727 5727 5727 5727 5728 5729 5729 5730 5731 5733 5735 5736 5739 5740 5740 5740 5738 5741 5746 5750 5752 5754 5755 5758 5760 5762 5768 5772 5774 5776 5777 5779 5781 5779 5780 5782 5784 5789 5793 5794
5732 5732 5733 5733 5733 5733 5733 5734 5734 5734 5735 5735 5736 5736 5737 5737 5737 5737 5737 5737 5737 5737 5737 5737 5736 5736 5736 5735 5735 5734 5734 5733 5732 5731 5730 5729 5728 5727 5727 5725 5724 5723 5722 5722 5721 5721 5721 5720 5720 5720 5721 5720 5721 5722 5722 5723 5724 5725 5727 5728 5731 5732 5732 5733 5732 5736 5740 5743 5746 5746 5749 5754 5754 5755 5762 5767 5769 5772 5773 5775 5778 5776 5776 5778 5780 5785 5789 5789
5734 5734 5734 5734 5734 5734 5734 5734 5734 5735 5735 5735 5736 5736 5736 5736 5737 5736 5736 5736 5736 5736 5736 5735 5735 5735 5734 5734 5733 5732 5731 5730 5729 5728 5727 5726 5725 5723 5722 5721 5719 5718 5717 5716 5715 5715 5714 5714 5714 5714 5714 5713 5714 5714 5714 5717 5717 5717 5719 5721 5723 5724 5725 5726 5727 5731 5734 5737 5739 5740 5743 5747 5748 5750 5755 5762 5765 5767 5769 5772 5774 5773 5772 5774 5776 5780 5784 5785
5735 5735 5735 5734 5734 5734 5735 5735 5735 5735 5735 5735 5736 5736 5736 5736 5736 5736 5736 5735 5735 5735 5734 5734 5734 5733 5732 5732 5731 5730 5729 5728 5727 5726 5724 5722 5721 5719 5718 5716 5715 5713 5711 5710 5709 5708 5707 5706 5706 5706 5706 5706 5706 5706 5706 5709 5709 5710 5711 5713 5716 5717 5718 5720 5722 5725 5728 5730 5731 5733 5736 5739 5743 5744 5749 5758 5760 5761 5763 5767 5770 5769 5768 5769 5771 5774 5778 5780
5736 5736 5735 5735 5735 5735 5735 5735 5735 5735 5735 5736 5735 5736 5736 5736 5735 5735 5735 5735 5734 5734 5733 5733 5732 5731 5730 5729 5729 5727 5726 5725 5724 5722 5721 5719 5717 5716 5714 5712 5710 5708 5706 5704 5702 5701 5699 5699 5698 5698 5698 5697 5697 5697 5697 5699 5700 5701 5702 5704 5707 5710 5711 5712 5715 5718 5720 5722 5724 5725 5727 5732 5736 5736 5744 5752 5753 5755 5757 5760 5764 5765 5764 5764 5765 5768 5772 5775
5737 5737 5737 5736 5736 5736 5736 5736 5736 5736 5736 5736 5735 5735 5735 5735 5735 5735 5734 5734 5733 5733 5732 5732 5731 5730 5729 5728 5727 5725 5724 5723 5721 5720 5718 5716 5714 5712 5710 5708 5706 5704 5701 5699 5696 5694 5692 5691 5689 5689 5689 5688 5688 5688 5688 5689 5690 5691 5692 5695 5698 5701 5703 5705 5707 5710 5712 5715 5716 5716 5718 5724 5727 5731 5739 5744 5747 5750 5750 5754 5758 5759 5760 5759 5760 5764 5768 5771
5738 5738 5738 5737 5737 5737 5737 5736 5736 5736 5736 5735 5735 5735 5735 5735 5735 5734 5734 5733 5733 5732 5731 5731 5730 5729 5728 5726 5725 5723 5722 5720 5719 5717 5715 5714 5712 5709 5707 5704 5702 5699 5697 5694 5691 5688 5686 5684 5682 5681 5680 5679 5679 5678 5678 5678 5680 5680 5680 5684 5689 5691 5694 5696 5699 5701 5704 5707 5708 5707 5710 5715 5721 5727 5731 5734 5741 5743 5741 5746 5750 5754 5756 5756 5757 5760 5763 5767
5739 5739 5738 5738 5738 5737 5737 5737 5736 5736 5736 5735 5735 5735 5735 5735 5734 5734 5733 5733 5732 5731 5730 5729 5728 5727 5726 5725 5723 5722 5720 5718 5716 5714 5712 5710 5708 5706 5704 5701 5698 5695 5692 5689 5685 5683 5679 5677 5675 5673 5671 5671 5669 5668 5668 5667 5668 5668 5668 5674 5679 5681 5684 5686 5687 5692 5696 5699 5699 5700 5703 5708 5713 5720 5723 5728 5733 5731 5733 5740 5743 5748 5751 5752 5754 5756 5758 5762
5740 5739 5739 5739 5738 5738 5737 5737 5737 5736 5736 5736 5735 5735 5735 5735 5734 5734 5733 5732 5731 5730 5730 5728 5727 5726 5724 5723 5721 5720 5718 5716 5714 5712 5710 5708 5705 5703 5700 5697 5694 5691 5687 5684 5680 5677 5673 5669 5667 5664 5663 5662 5660 5659 5659 5657 5657 5657 5659 5664 5666 5670 5674 5674 5676 5681 5686 5689 5691 5692 5696 5701 5706 5713 5718 5721 5721 5721 5729 5734 5736 5742 5745 5747 5750 5751 5754 5756
5741 5740 5740 5739 5739 5738 5738 5738 5737 5737 5736 5736 5736 5735 5735 5735 5734 5734 5733 5732 5731 5730 5729 5727 5726 5724 5723 5721 5720 5718 5716 5714 5712 5710 5708 5706 5703 5700 5698 5694 5691 5687 5683 5680 5676 5672 5667 5663 5660 5657 5654 5653 5651 5650 5650 5648 5647 5647 5650 5652 5654 5658 5661 5663 5666 5669 5673 5678 5681 5684 5687 5693 5700 5705 5708 5711 5711 5715 5724 5727 5730 5736 5739 5742 5745 5747 5749 5751
5742 5741 5741 5740 5739 5739 5739 5738 5738 5737 5737 5736 5736 5736 5735 5735 5734 5734 5733 5732 5731 5729 5728 5726 5724 5723 5721 5719 5718 5716 5714 5712 5710 5708 5706 5703 5700 5698 5695 5691 5688 5684 5680 5676 5672 5667 5663 5658 5655 5652 5649 5648 5645 5644 5643 5642 5641 5640 5640 5641 5643 5647 5649 5654 5656 5657 5661 5667 5670 5674 5677 5685 5693 5696 5698 5703 5706 5709 5716 5720 5724 5728 5732 5736 5739 5742 5744 5745
5743 5742 5741 5741 5740 5740 5739 5739 5738 5738 5738 5737 5737 5736 5736 5735 5735 5734 5732 5731 5730 5729 5727 5725 5723 5721 5719 5717 5716 5715 5713 5711 5708 5706 5703 5701 5698 5694 5691 5688 5685 5682 5679 5674 5669 5664 5659 5655 5652 5649 5646 5644 5641 5639 5638 5637 5636 5635 5634 5633 5635 5637 5639 5645 5647 5647 5651 5654 5658 5663 5668 5678 5686 5687 5690 5696 5700 5703 5709 5715 5718 5721 5726 5730 5732 5736 5739 5740
5744 5743 5742 5741 5741 5740 5740 5740 5739 5739 5738 5738 5738 5737 5736 5735 5734 5733 5732 5731 5729 5728 5726 5724 5722 5721 5719 5717 5716 5715 5713 5710 5707 5704 5701 5698 5695 5692 5689 5686 5683 5679 5675 5671 5665 5660 5655 5652 5649 5647 5644 5642 5639 5636 5634 5632 5630 5629 5629 5628 5629 5630 5632 5636 5637 5638 5641 5643 5649 5654 5661 5671 5678 5679 5683 5689 5693 5698 5702 5707 5711 5715 5719 5722 5726 5730 5732 5733
5745 5744 5743 5743 5742 5742 5741 5741 5740 5740 5739 5739 5738 5738 5737 5735 5734 5733 5732 5730 5729 5727 5726 5724 5722 5720 5718 5716 5715 5713 5711 5709 5706 5703 5700 5696 5693 5691 5688 5685 5682 5677 5672 5668 5663 5657 5653 5650 5648 5646 5643 5640 5636 5633 5630 5628 5626 5625 5624 5624 5624 5625 5627 5628 5629 5631 5632 5635 5641 5647 5654 5664 5671 5673 5676 5681 5686 5691 5695 5700 5704 5707 5711 5715 5718 5722 5724 5727
5747 5746 5745 5744 5744 5743 5743 5742 5741 5741 5740 5740 5739 5738 5737 5736 5735 5734 5732 5730 5729 5728 5726 5724 5722 5720 5717 5715 5713 5711 5709 5707 5705 5702 5699 5695 5692 5689 5687 5683 5680 5676 5672 5667 5662 5656 5652 5650 5648 5645 5641 5637 5633 5630 5627 5625 5623 5622 5622 5622 5621 5622 5623 5623 5624 5625 5627 5630 5636 5641 5647 5656 5664 5667 5669 5675 5681 5685 5688 5691 5694 5697 5702 5705 5706 5709 5714 5716
5748 5748 5747 5746 5745 5745 5744 5744 5743 5742 5742 5741 5740 5739 5738 5737 5735 5734 5732 5731 5729 5728 5726 5724 5722 5720 5718 5715 5713 5711 5709 5707 5704 5702 5699 5695 5692 5689 5686 5683 5679 5676 5672 5667 5662 5656 5652 5650 5647 5644 5640 5636 5632 5630 5627 5625 5623 5622 5621 5621 5620 5620 5620 5620 5621 5623 5624 5628 5632 5635 5640 5649 5658 5662 5664 5670 5676 5678 5678 5677 5680 5686 5689 5690 5693 5698 5704 5707
5750 5749 5748 5748 5747 5746 5746 5745 5744 5743 5743 5741 5740 5739 5738 5737 5736 5734 5732 5731 5729 5727 5726 5725 5723 5720 5718 5716 5714 5712 5710 5707 5705 5702 5699 5696 5693 5690 5686 5683 5679 5675 5671 5667 5662 5657 5652 5649 5647 5645 5642 5638 5635 5632 5629 5627 5625 5623 5622 5621 5620 5620 5620 5620 5621 5621 5622 5625 5627 5630 5637 5646 5654 5658 5661 5665 5667 5667 5665 5664 5669 5677 5679 5682 5688 5694 5700 5705
5751 5750 5750 5749 5748 5747 5747 5746 5745 5744 5743 5742 5741 5740 5739 5737 5736 5734 5733 5731 5729 5728 5727 5725 5723 5721 5719 5717 5715 5712 5710 5708 5705 5702 5699 5696 5693 5689 5686 5682 5679 5675 5671 5667 5662 5657 5652 5650 5647 5645 5643 5640 5638 5634 5632 5629 5627 5625 5624 5622 5621 5621 5620 5620 5620 5621 5622 5623 5625 5629 5635 5643 5648 5652 5653 5654 5653 5652 5653 5657 5664 5670 5674 5679 5685 5690 5696 5702
5753 5752 5751 5750 5749 5749 5748 5747 5746 5745 5744 5743 5742 5740 5739 5738 5736 5735 5734 5732 5730 5729 5727 5725 5723 5722 5719 5717 5715 5713 5710 5708 5705 5702 5699 5696 5693 5689 5685 5682 5678 5674 5671 5666 5661 5656 5652 5650 5648 5646 5644 5642 5639 5637 5634 5631 5629 5627 5625 5624 5623 5621 5621 5620 5620 5620 5621 5622 5625 5629 5634 5638 5640 5640 5642 5642 5642 5645 5650 5656 5661 5664 5669 5675 5679 5684 5690 5695
5754 5753 5752 5751 5750 5750 5749 5748 5747 5746 5745 5744 5742 5741 5740 5738 5737 5736 5734 5733 5731 5729 5727 5726 5724 5722 5720 5718 5716 5713 5710 5708 5705 5702 5700 5696 5693 5689 5685 5682 5678 5674 5670 5666 5661 5658 5653 5650 5648 5647 5645 5643 5641 5639 5636 5633 5631 5628 5626 5625 5624 5622 5621 5620 5620 5620 5621 5622 5625 5629 5633 5634 5634 5635 5637 5638 5640 5644 5647 5653 5658 5660 5664 5669 5673 5678 5683 5688
5755 5754 5753 5752 5751 5750 5749 5748 5747 5746 5745 5744 5743 5742 5741 5739 5738 5737 5735 5734 5732 5730 5728 5727 5725 5722 5720 5718 5716 5714 5711 5708 5705 5702 5699 5696 5693 5689 5685 5681 5678 5674 5670 5666 5663 5660 5655 5651 5649 5648 5646 5644 5642 5640 5638 5636 5633 5631 5628 5627 5625 5624 5622 5620 5620 5621 5622 5623 5625 5628 5630 5632 5632 5634 5636 5638 5640 5641 5643 5649 5654 5657 5660 5665 5669 5674 5678 5683
5756 5755 5754 5753 5752 5751 5750 5749 5748 5747 5746 5744 5743 5742 5741 5740 5738 5737 5736 5735 5733 5731 5729 5727 5725 5724 5721 5719 5716 5715 5712 5708 5705 5703 5700 5697 5694 5690 5686 5682 5678 5674 5670 5667 5664 5660 5656 5653 5651 5648 5647 5646 5644 5642 5640 5638 5636 5633 5631 5629 5627 5625 5623 5622 5622 5623 5624 5625 5626 5627 5629 5631 5632 5633 5635 5637 5640 5641 5643 5646 5650 5654 5658 5662 5666 5670 5674 5678
5757 5756 5755 5754 5753 5752 5751 5750 5749 5747 5746 5745 5744 5743 5742 5740 5739 5737 5736 5735 5733 5731 5729 5728 5726 5724 5722 5720 5718 5716 5713 5710 5707 5704 5701 5698 5695 5691 5686 5682 5678 5674 5671 5668 5665 5661 5658 5656 5653 5650 5648 5646 5645 5643 5642 5640 5638 5636 5634 5632 5630 5628 5626 5625 5625 5625 5626 5626 5627 5628 5630 5633 5634 5635 5636 5639 5641 5643 5644 5646 5648 5651 5654 5659 5663 5667 5669 5672
5757 5756 5756 5755 5754 5753 5752 5751 5749 5748 5747 5746 5745 5743 5742 5741 5740 5738 5737 5735 5733 5731 5730 5728 5727 5725 5723 5721 5719 5716 5714 5711 5708 5705 5702 5699 5696 5692 5687 5683 5679 5676 5673 5669 5666 5663 5660 5657 5654 5652 5649 5647 5645 5644 5643 5642 5640 5639 5637 5635 5633 5631 5630 5628 5628 5628 5628 5629 5630 5630 5632 5635 5637 5638 5639 5641 5644 5645 5645 5647 5648 5649 5651 5654 5659 5662 5665 5667
5758 5757 5756 5755 5754 5753 5752 5751 5750 5749 5748 5746 5745 5744 5743 5742 5740 5739 5737 5736 5734 5732 5731 5729 5727 5726 5724 5722 5720 5717 5715 5712 5709 5706 5703 5699 5696 5693 5689 5686 5682 5678 5675 5670 5667 5664 5662 5659 5656 5653 5650 5648 5646 5645 5644 5643 5642 5641 5640 5639 5637 5635 5633 5631 5631 5631 5631 5632 5633 5634 5635 5637 5639 5640 5642 5643 5646 5646 5646 5647 5648 5649 5649 5651 5654 5657 5659 5663
5759 5758 5757 5756 5755 5754 5753 5752 5751 5749 5748 5747 5746 5744 5743 5742 5741 5740 5738 5737 5735 5733 5731 5730 5728 5727 5725 5723 5721 5719 5716 5713 5711 5708 5704 5701 5697 5695 5692 5689 5685 5681 5677 5673 5670 5666 5663 5660 5657 5654 5652 5650 5647 5646 5645 5644 5643 5643 5642 5641 5640 5638 5636 5635 5634 5634 5634 5634 5636 5637 5638 5640 5641 5642 5643 5644 5646 5647 5647 5648 5649 5649 5649 5649 5650 5653 5656 5658
5759 5758 5757 5756 5755 5754 5753 5752 5751 5750 5749 5748 5746 5745 5744 5743 5742 5740 5738 5737 5736 5734 5732 5731 5729 5728 5726 5724 5722 5720 5718 5715 5713 5710 5707 5704 5701 5698 5695 5691 5687 5684 5680 5676 5673 5669 5666 5662 5659 5656 5654 5653 5651 5649 5647 5646 5644 5644 5643 5643 5642 5640 5639 5638 5637 5636 5636 5637 5638 5640 5641 5642 5642 5643 5644 5644 5645 5646 5646 5647 5648 5649 5649 5648 5649 5651 5653 5655
5760 5759 5758 5757 5756 5755 5754 5753 5752 5751 5750 5748 5747 5746 5745 5744 5742 5741 5739 5738 5736 5735 5733 5732 5730 5729 5727 5725 5723 5721 5718 5716 5714 5711 5708 5705 5702 5698 5695 5691 5688 5684 5681 5678 5675 5672 5669 5665 5662 5660 5657 5656 5654 5652 5650 5648 5646 5645 5644 5644 5643 5642 5641 5640 5639 5639 5639 5639 5640 5641 5642 5643 5643 5643 5644 5644 5645 5645 5645 5645 5646 5647 5648 5648 5648 5649 5650 5652
5760 5760 5759 5758 5757 5756 5755 5754 5753 5752 5750 5749 5748 5747 5745 5744 5743 5741 5740 5738 5737 5736 5734 5733 5731 5729 5727 5725 5724 5721 5719 5716 5714 5711 5709 5706 5703 5700 5696 5693 5690 5686 5683 5680 5677 5674 5671 5668 5665 5662 5660 5658 5655 5653 5651 5648 5647 5646 5645 5644 5643 5643 5642 5641 5641 5641 5641 5641 5642 5642 5643 5643 5644 5643 5643 5644 5644 5644 5644 5644 5645 5645 5645 5646 5647 5647 5648 5649
5761 5760 5759 5758 5757 5756 5755 5754 5753 5752 5751 5750 5749 5747 5746 5745 5744 5742 5741 5739 5738 5736 5735 5733 5732 5730 5728 5726 5724 5722 5719 5717 5714 5712 5710 5707 5705 5702 5698 5695 5692 5689 5686 5683 5679 5676 5672 5669 5666 5663 5661 5660 5657 5654 5652 5650 5649 5648 5646 5646 5645 5644 5643 5642 5642 5642 5642 5642 5643 5643 5644 5644 5644 5644 5644 5644 5644 5644 5644 5644 5643 5644 5644 5644 5645 5645 5645 5647
5761 5760 5759 5758 5757 5756 5756 5755 5754 5753 5752 5751 5749 5748 5747 5746 5744 5743 5742 5740 5739 5737 5736 5734 5732 5731 5729 5726 5724 5722 5720 5717 5715 5713 5710 5708 5706 5703 5700 5697 5694 5691 5688 5685 5682 5678 5675 5671 5668 5666 5665 5662 5659 5657 5656 5654 5652 5650 5649 5648 5647 5645 5645 5644 5644 5643 5643 5643 5643 5643 5644 5643 5643 5643 5643 5643 5643 5643 5643 5643 5643 5643 5643 5643 5643 5644 5644 5644
5761 5760 5759 5758 5757 5757 5756 5755 5754 5753 5752 5751 5750 5748 5747 5746 5745 5743 5742 5741 5739 5738 5736 5735 5733 5731 5729 5727 5725 5722 5720 5718 5716 5713 5711 5708 5706 5704 5702 5699 5696 5692 5690 5687 5683 5680 5677 5674 5672 5670 5668 5664 5662 5660 5658 5656 5654 5652 5652 5650 5648 5647 5647 5646 5645 5645 5644 5644 5643 5643 5643 5643 5642 5642 5642 5642 5642 5642 5643 5643 5643 5642 5642 5642 5642 5643 5643 5643
5761 5760 5759 5758 5757 5757 5756 5755 5754 5753 5753 5752 5751 5749 5748 5747 5745 5744 5742 5741 5739 5738 5736 5735 5733 5732 5730 5728 5725 5723 5721 5718 5716 5714 5711 5709 5706 5704 5702 5700 5697 5694 5691 5688 5685 5682 5680 5677 5675 5673 5669 5666 5664 5662 5660 5658 5656 5654 5653 5651 5650 5649 5648 5647 5646 5646 5645 5644 5643 5643 5642 5642 5641 5641 5641 5641 5640 5641 5641 5642 5642 5642 5642 5642 5642 5642 5642 5642
5761 5760 5759 5758 5757 5757 5756 5755 5754 5753 5753 5752 5751 5750 5749 5747 5746 5744 5743 5741 5740 5738 5736 5735 5733 5732 5730 5728 5726 5724 5721 5719 5716 5714 5712 5709 5707 5704 5702 5700 5698 5696 5693 5690 5687 5684 5682 5679 5677 5674 5671 5669 5668 5666 5663 5661 5658 5656 5654 5652 5651 5650 5649 5648 5647 5646 5645 5645 5644 5643 5642 5641 5641 5640 5640 5640 5639 5639 5640 5640 5641 5641 5641 5641 5641 5641 5641 5641
5761 5760 5759 5758 5757 5756 5756 5755 5754 5753 5752 5752 5751 5750 5749 5748 5746 5745 5743 5742 5740 5738 5737 5735 5733 5732 5730 5728 5726 5724 5722 5719 5717 5714 5712 5710 5707 5705 5703 5700 5698 5696 5694 5692 5689 5686 5684 5681 5678 5676 5674 5672 5671 5669 5666 5664 5661 5659 5657 5655 5654 5652 5651 5649 5648 5647 5645 5645 5644 5643 5642 5642 5641 5641 5640 5640 5639 5639 5639 5639 5639 5639 5639 5639 5639 5638 5638 5638
5761 5760 5759 5758 5757 5756 5755 5754 5754 5752 5752 5751 5750 5749 5748 5747 5746 5745 5743 5742 5740 5739 5737 5735 5733 5732 5730 5728 5726 5724 5722 5720 5717 5715 5712 5710 5708 5706 5703 5701 5699 5697 5695 5693 5691 5688 5686 5683 5681 5679 5677 5674 5672 5670 5668 5666 5664 5662 5660 5658 5656 5654 5653 5651 5649 5647 5646 5645 5644 5643 5642 5642 5641 5640 5639 5639 5639 5639 5638 5637 5637 5637 5637 5637 5636 5635 5635 5635
5761 5760 5759 5758 5757 5756 5755 5754 5753 5752 5751 5750 5749 5748 5748 5747 5746 5744 5743 5742 5740 5739 5737 5735 5734 5732 5730 5728 5725 5723 5721 5719 5717 5715 5713 5710 5708 5706 5704 5701 5699 5697 5695 5693 5692 5690 5688 5685 5682 5680 5678 5676 5673 5671 5669 5667 5666 5664 5661 5659 5657 5655 5654 5652 5651 5649 5647 5645 5644 5643 5642 5642 5641 5639 5638 5637 5637 5637 5637 5636 5635 5634 5634 5634 5633 5632 5632 5631
5760 5760 5759 5758 5757 5756 5755 5753 5752 5751 5750 5749 5748 5747 5746 5745 5744 5743 5742 5741 5740 5738 5737 5735 5733 5732 5730 5728 5726 5723 5721 5719 5717 5715 5712 5710 5708 5705 5703 5701 5699 5697 5695 5693 5691 5690 5688 5686 5683 5680 5678 5677 5675 5673 5670 5669 5667 5665 5663 5661 5658 5657 5655 5654 5652 5651 5649 5646 5645 5643 5642 5641 5640 5639 5637 5636 5636 5636 5635 5634 5632 5631 5631 5630 5629 5629 5628 5627
5759 5758 5758 5757 5757 5755 5754 5753 5751 5750 5749 5748 5747 5746 5745 5744 5743 5742 5741 5740 5739 5738 5736 5734 5733 5731 5729 5727 5725 5723 5721 5719 5717 5714 5712 5710 5707 5705 5703 5701 5699 5697 5695 5693 5690 5688 5687 5686 5684 5682 5679 5677 5676 5674 5672 5670 5667 5665 5663 5661 5659 5657 5656 5654 5653 5652 5650 5648 5646 5644 5642 5640 5639 5639 5637 5636 5634 5633 5633 5632 5630 5629 5628 5627 5626 5625 5624 5623
5756 5756 5756 5756 5755 5754 5753 5752 5751 5749 5748 5747 5746 5745 5744 5743 5742 5741 5740 5739 5737 5736 5735 5733 5732 5730 5728 5726 5725 5723 5720 5718 5716 5714 5712 5709 5707 5704 5702 5700 5698 5697 5695 5693 5690 5688 5686 5684 5682 5681 5679 5676 5674 5673 5672 5670 5668 5665 5663 5661 5659 5657 5655 5653 5652 5651 5650 5648 5646 5645 5643 5640 5638 5637 5636 5635 5633 5631 5630 5629 5627 5626 5625 5624 5622 5621 5620 5620
5754 5754 5753 5753 5753 5752 5752 5751 5750 5749 5747 5746 5745 5744 5743 5742 5741 5739 5738 5737 5735 5734 5733 5732 5730 5729 5727 5725 5723 5721 5719 5717 5715 5713 5711 5709 5707 5704 5701 5698 5696 5695 5694 5693 5690 5688 5686 5683 5681 5679 5677 5675 5673 5671 5670 5668 5666 5665 5663 5660 5658 5656 5654 5652 5651 5650 5649 5647 5646 5644 5643 5641 5639 5637 5635 5634 5632 5630 5628 5627 5625 5624 5622 5621 5620 5618 5617 5616
5751 5751 5750 5750 5750 5749 5749 5748 5748 5747 5746 5745 5743 5742 5741 5740 5739 5738 5736 5735 5733 5732 5731 5730 5729 5727 5725 5724 5722 5720 5718 5716 5714 5712 5710 5709 5706 5704 5701 5698 5694 5692 5691 5691 5689 5688 5685 5683 5681 5677 5675 5673 5672 5670 5668 5667 5665 5663 5662 5660 5658 5656 5654 5652 5650 5648 5647 5645 5644 5643 5641 5639 5638 5637 5635 5633 5631 5629 5628 5626 5624 5622 5621 5619 5617 5616 5614 5612
5749 5749 5748 5747 5747 5746 5746 5745 5745 5745 5744 5743 5742 5740 5739 5738 5737 5736 5735 5733 5731 5730 5728 5727 5726 5725 5724 5722 5720 5719 5717 5715 5713 5711 5709 5707 5705 5703 5701 5698 5694 5691 5688 5687 5687 5686 5684 5682 5681 5678 5674 5671 5670 5668 5667 5665 5663 5661 5660 5659 5658 5655 5653 5651 5648 5646 5644 5643 5642 5640 5639 5636 5635 5634 5633 5631 5630 5628 5626 5624 5622 5620 5618 5617 5615 5613 5611 5609
5748 5747 5746 5745 5744 5743 5743 5742 5742 5741 5741 5740 5739 5738 5737 5736 5735 5734 5732 5731 5730 5728 5726 5725 5723 5722 5721 5720 5718 5717 5715 5713 5711 5709 5707 5705 5704 5702 5699 5697 5694 5691 5687 5684 5683 5682 5681 5680 5679 5678 5674 5670 5667 5666 5664 5663 5661 5659 5657 5656 5656 5654 5652 5649 5647 5644 5642 5640 5639 5637 5636 5634 5632 5631 5630 5629 5627 5626 5623 5621 5619 5617 5615 5614 5612 5610 5608 5606
5746 5745 5744 5743 5742 5741 5740 5739 5738 5738 5737 5737 5736 5736 5734 5733 5732 5731 5730 5729 5727 5726 5724 5723 5721 5719 5718 5716 5715 5714 5712 5711 5709 5707 5705 5703 5701 5700 5697 5695 5693 5690 5687 5682 5679 5678 5677 5676 5675 5675 5674 5670 5666 5664 5662 5660 5659 5657 5654 5653 5652 5652 5650 5648 5645 5642 5639 5637 5635 5634 5632 5631 5629 5627 5626 5625 5624 5622 5620 5618 5616 5614 5612 5610 5608 5606 5604 5602
5744 5743 5742 5741 5740 5739 5738 5737 5736 5734 5734 5733 5733 5732 5731 5730 5729 5728 5727 5726 5725 5724 5722 5720 5719 5717 5715 5714 5712 5711 5710 5708 5706 5704 5702 5700 5699 5697 5695 5693 5690 5687 5685 5682 5678 5674 5673 5672 5671 5670 5671 5669 5665 5662 5660 5658 5656 5654 5651 5649 5648 5647 5647 5646 5643 5639 5637 5634 5632 5630 5628 5626 5625 5623 5622 5620 5619 5618 5616 5613 5610 5608 5606 5604 5602 5601 5599 5597
5741 5740 5740 5739 5738 5738 5736 5734 5733 5732 5730 5729 5729 5728 5727 5726 5725 5724 5723 5722 5722 5721 5720 5718 5717 5715 5713 5711 5709 5708 5706 5705 5703 5701 5699 5697 5695 5694 5692 5690 5687 5685 5682 5680 5677 5673 5669 5668 5667 5666 5665 5665 5662 5659 5657 5655 5653 5651 5648 5645 5643 5642 5642 5642 5640 5637 5633 5631 5629 5627 5625 5622 5620 5618 5617 5615 5614 5612 5611 5608 5605 5602 5600 5598 5596 5594 5592 5590